Tupelo, MS

7:34 PM CDT on June 27, 2017 (GMT -0500)
Tupelo Regional

Weather History for KTUP - October, 2012

Change the Weather History Date:

Sunday, October 14, 2012

  Actual Average Record
Temperature  
Mean Temperature 71 °F 64 °F  
Max Temperature 77 °F 76 °F 91 °F (1938)
Min Temperature 65 °F 51 °F 29 °F (1977)
Degree Days  
Heating Degree Days 0 4  
Month to date heating degree days 52 37  
Since 1 July heating degree days 63 49  
Cooling Degree Days 6 2  
Month to date cooling degree days 34 49  
Year to date cooling degree days 2194 2007  
Growing Degree Days 20 (Base 50)    
Moisture  
Dew Point 66 °F    
Average Humidity 85    
Maximum Humidity 100    
Minimum Humidity 69    
Precipitation  
Precipitation 0.42 in 0.13 in 2.19 in (2014)
Month to date precipitation 1.98 1.87  
Year to date precipitation 40.44 41.78  
Snow  
Snow 0.00 in 0.00 in 0.00 in (2002)
Month to date snowfall 0.0 0.0  
Since 1 July snowfall 0.0 0.0  
Since 1 September snowfall 0.0 0.0  
Snow Depth 0.00 in    
Sea Level Pressure  
Sea Level Pressure 30.00 in    
Wind  
Wind Speed 9 mph (SW)    
Max Wind Speed 22 mph    
Max Gust Speed 29 mph    
Visibility 7 miles    
Events Fog , Rain , Thunderstorm    
T = Trace of Precipitation, MM = Missing Value Source: NWS Daily Summary

Daily Weather History Graph

Daily Weather History Graph

Search for Another Location

Airport or City:

Trip Planner

Search our weather history database for the weather conditions in past years. The results will help you decide how hot, cold, wet, or windy it might be!

Date:

Astronomy

Oct. 14, 2012 Rise Set
Actual Time 6:59 AM CDT 6:21 PM CDT
Civil Twilight 6:34 AM CDT 6:46 PM CDT
Nautical Twilight 6:05 AM CDT 7:15 PM CDT
Astronomical Twilight 5:36 AM CDT 7:44 PM CDT
Moon 5:59 AM CDT (10/14) 5:41 PM CDT (10/14)
Length of Visible Light 12h 11m
Length of Day
11h 21m
Waning Crescent, 1% of the Moon is Illuminated
Oct 14
Waning Crescent
Oct 15
New
Oct 21
First Quarter
Oct 29
Full
Nov 6
Last Quarter

Hourly Weather History & Observations

Time (CDT) Temp. Dew Point Humidity Pressure Visibility Wind Dir Wind Speed Gust Speed Precip Events Conditions
12:53 AM 70.0 °F 64.0 °F 81% 30.05 in 10.0 mi South 9.2 mph - N/A   Clear
1:53 AM 69.1 °F 64.9 °F 87% 30.04 in 10.0 mi South 10.4 mph - N/A   Clear
2:53 AM 68.0 °F 64.9 °F 90% 30.02 in 10.0 mi South 10.4 mph - N/A   Clear
3:53 AM 68.0 °F 64.9 °F 90% 30.02 in 10.0 mi SSW 10.4 mph - N/A   Clear
4:53 AM 68.0 °F 64.9 °F 90% 30.04 in 10.0 mi SW 8.1 mph - N/A   Clear
5:18 AM 68.0 °F 64.4 °F 88% 30.07 in 10.0 mi SW 6.9 mph - N/A   Mostly Cloudy
5:53 AM 68.0 °F 64.9 °F 90% 30.06 in 9.0 mi SSW 12.7 mph - N/A   Partly Cloudy
6:53 AM 68.0 °F 64.9 °F 90% 30.08 in 9.0 mi SW 10.4 mph - N/A   Clear
7:53 AM 70.0 °F 66.0 °F 87% 30.08 in 10.0 mi SSW 13.8 mph - N/A   Mostly Cloudy
8:53 AM 72.0 °F 66.9 °F 84% 30.08 in 10.0 mi SSW 16.1 mph - N/A   Partly Cloudy
9:49 AM 69.8 °F 62.6 °F 78% 30.11 in 2.0 mi WNW 13.8 mph 28.8 mph 0.00 in Rain Heavy Rain
9:53 AM 66.0 °F 63.0 °F 90% 30.10 in 0.8 mi WNW 11.5 mph 28.8 mph 0.07 in Rain Heavy Rain
10:02 AM 66.2 °F 64.4 °F 94% 30.11 in 1.0 mi WSW 6.9 mph 28.8 mph 0.27 in Rain Heavy Rain
10:08 AM 66.2 °F 64.4 °F 94% 30.11 in 2.0 mi West 10.4 mph - 0.31 in Rain Rain
10:16 AM 66.2 °F 64.4 °F 94% 30.10 in 8.0 mi SW 10.4 mph 17.3 mph 0.32 in Rain Light Rain
10:53 AM 68.0 °F 64.9 °F 90% 30.06 in 10.0 mi SW 15.0 mph 19.6 mph 0.32 in Rain Light Rain
11:53 AM 68.0 °F 64.0 °F 87% 30.01 in 10.0 mi SW 12.7 mph 20.7 mph 0.00 in   Mostly Cloudy
12:53 PM 69.1 °F 64.9 °F 87% 30.02 in 10.0 mi SW 11.5 mph - N/A   Partly Cloudy
1:53 PM 71.1 °F 64.9 °F 81% 29.98 in 10.0 mi SW 10.4 mph - N/A   Mostly Cloudy
2:53 PM 75.0 °F 64.9 °F 71% 29.96 in 10.0 mi SW 8.1 mph - N/A   Mostly Cloudy
3:53 PM 75.0 °F 66.0 °F 73% 29.94 in 10.0 mi SSW 10.4 mph - N/A   Overcast
4:53 PM 75.9 °F 66.9 °F 74% 29.94 in 10.0 mi SW 9.2 mph - N/A   Overcast
5:53 PM 75.0 °F 68.0 °F 79% 29.94 in 10.0 mi SW 5.8 mph - N/A   Scattered Clouds
6:53 PM 75.0 °F 68.0 °F 79% 29.92 in 10.0 mi WSW 8.1 mph - N/A   Scattered Clouds
7:53 PM 71.1 °F 68.0 °F 90% 29.94 in 10.0 mi SW 4.6 mph - N/A   Mostly Cloudy
8:33 PM 71.6 °F 69.8 °F 94% 29.95 in 4.0 mi Calm Calm - 0.02 in Rain , Thunderstorm Light Thunderstorms and Rain
8:49 PM 69.8 °F 68.0 °F 94% 29.96 in 8.0 mi Calm Calm - 0.03 in   Scattered Clouds
8:53 PM 70.0 °F 68.0 °F 93% 29.95 in 8.0 mi Calm Calm - 0.03 in   Partly Cloudy
9:53 PM 68.0 °F 66.9 °F 96% 29.96 in 2.0 mi Calm Calm - N/A   Clear
10:01 PM 66.2 °F 66.2 °F 100% 29.97 in 1.2 mi SSW 3.5 mph - N/A   Scattered Clouds
10:13 PM 66.2 °F 64.4 °F 94% 29.97 in 0.8 mi Variable 3.5 mph - N/A   Mostly Cloudy
10:22 PM 69.8 °F 68.0 °F 94% 29.97 in 2.0 mi WNW 3.5 mph - N/A   Mostly Cloudy
10:29 PM 69.8 °F 68.0 °F 94% 29.97 in 9.0 mi NW 3.5 mph - N/A   Mostly Cloudy
10:53 PM 69.1 °F 68.0 °F 96% 29.95 in 9.0 mi Calm Calm - N/A   Clear
11:20 PM 66.2 °F 66.2 °F 100% 29.96 in 1.5 mi Calm Calm - N/A   Clear
11:22 PM 66.2 °F 66.2 °F 100% 29.96 in 1.0 mi Calm Calm - N/A   Mist
11:29 PM 66.2 °F 64.4 °F 94% 29.96 in 0.5 mi Calm Calm - N/A Fog Fog
11:42 PM 66.2 °F 66.2 °F 100% 29.96 in 1.2 mi Calm Calm - N/A   Partly Cloudy
11:45 PM 66.2 °F 66.2 °F 100% 29.96 in 3.0 mi Calm Calm - N/A   Partly Cloudy
11:53 PM 66.9 °F 66.9 °F 100% 29.95 in 4.0 mi Calm Calm - N/A   Partly Cloudy
11:56 PM 66.2 °F 66.2 °F 100% 29.96 in 1.5 mi Calm Calm - N/A   Partly Cloudy
11:58 PM 66.2 °F 66.2 °F 100% 29.96 in 0.8 mi Calm Calm - N/A   Mist